Location: Beverley
(50.2667°N, 107.9667°W)
Time: 21:07:11
(UTC+00:00)

Envisat - Pass Details

Date: 21 January 2022
Orbit: 764 x 765 km, 98.2° (Epoch: 21 May)

Event Time Altitude Azimuth Distance (km) Brightness Sun altitude
Rises 14:01:44 0° 2° (N) 3,243 6.1 -9.2°
Reaches altitude 10° 14:04:51 10° 342° (NNW) 2,312 5.1 -8.7°
Maximum altitude 14:07:53 16° 306° (NW) 1,915 4.5 -8.3°
Drops below altitude 10° 14:10:54 10° 269° (W) 2,305 4.9 -7.8°
Sets 14:14:01 0° 248° (WSW) 3,227 5.8 -7.4°
